sat.trackr.live / text

‹ back to catalog

STARLINK-3587

NORAD 51892 · 2022-022AS

PAYLOAD ACTIVE UNKNOWN

§ Identity

Operator
Country
US
Launch date
2022-03-03
Launch site
AFETR
Launch vehicle
Mass (kg)
RCS (m²)

Purposes: comms

External: N2YO · Heavens-Above · Gunter

§ Orbital elements

Epoch: 2026-05-25T01:26:28.084128Z

Period
95.44 min
Inclination
53.2151°
Eccentricity
0.0001668
Mean motion
15.08835891 rev/d
Perigee alt
538.6 km
Apogee alt
540.9 km
Semi-major
6,917.9 km
B*
1.6122e-5
RAAN
16.2807°
Arg perigee
93.4585°
Mean anomaly
266.6598°
Rev number
23,477

§ Raw data

STARLINK-35871 51892U 22022AS  26145.06004727 -.00000031  00000+0  16122-4 0  99972 51892  53.2151  16.2807 0001668  93.4585 266.6598 15.08835891234776

JSON: /api/v1/satellites/51892 · /tle

For live sub-satellite position, see the globe view (requires WebGL).

§ Visibility from observer

Set your observer location to see the next 7 days of passes ≥ 10°. The values pass through the URL so the page stays shareable.

No JS? Fill the form by hand. The geolocation button needs JavaScript.